Time,TemperatureF,DewpointF,PressureIn,WindDirection,WindDirectionDegrees,WindSpeedMPH,WindSpeedGustMPH,Humidity,HourlyPrecipIn,Conditions,Clouds,dailyrainin,SoftwareType,DateUTC
2013-04-21 00:00:00,47.8,41.0,30.22,SE,145,8.1,8.1,77,0.00,SCT,FEW,0.00,WeatherDisplay:10.37,2013-04-20 23:00:00,
2013-04-21 00:05:00,47.8,41.0,30.21,ESE,122,5.8,5.8,77,0.00,BKN,FEW,0.00,WeatherDisplay:10.37,2013-04-20 23:05:00,
2013-04-21 00:10:00,47.8,41.0,30.21,ESE,122,5.9,5.9,77,0.00,BKN,FEW,0.00,WeatherDisplay:10.37,2013-04-20 23:10:00,
2013-04-21 00:15:00,48.0,41.2,30.21,SE,145,5.8,5.8,77,0.00,BKN,FEW,0.00,WeatherDisplay:10.37,2013-04-20 23:15:00,
2013-04-21 00:20:00,48.0,41.2,30.19,WSW,258,4.6,4.6,77,0.00,BKN,FEW,0.00,WeatherDisplay:10.37,2013-04-20 23:20:00,
2013-04-21 00:25:00,47.8,41.0,30.19,WSW,258,3.5,3.6,77,0.00,BKN,FEW,0.00,WeatherDisplay:10.37,2013-04-20 23:25:00,
2013-04-21 00:30:00,47.8,40.6,30.19,SE,145,5.8,5.8,76,0.00,BKN,FEW,0.00,WeatherDisplay:10.37,2013-04-20 23:30:00,
2013-04-21 00:35:00,47.8,40.6,30.19,ESE,122,6.9,6.9,76,0.00,BKN,FEW,0.00,WeatherDisplay:10.37,2013-04-20 23:35:00,
2013-04-21 00:40:00,48.0,40.8,30.19,ENE,78,2.3,4.5,76,0.00,BKN,FEW,0.00,WeatherDisplay:10.37,2013-04-20 23:40:00,
2013-04-21 00:45:00,47.8,40.6,30.19,ESE,122,6.9,6.9,76,0.00,BKN,FEW,0.00,WeatherDisplay:10.37,2013-04-20 23:45:00,
2013-04-21 00:50:00,47.7,40.5,30.19,SE,145,8.5,8.5,76,0.00,BKN,FEW,0.00,WeatherDisplay:10.37,2013-04-20 23:50:00,
2013-04-21 00:55:00,47.8,40.6,30.19,East,100,3.5,5.1,76,0.00,BKN,FEW,0.00,WeatherDisplay:10.37,2013-04-20 23:55:00,
2013-04-21 01:00:00,47.7,40.5,30.19,SE,145,5.8,5.8,76,0.00,BKN,FEW,0.00,WeatherDisplay:10.37,2013-04-21 00:00:00,
2013-04-21 01:05:00,47.7,40.5,30.18,SE,145,5.8,5.8,76,0.00,BKN,FEW,0.00,WeatherDisplay:10.37,2013-04-21 00:05:00,
2013-04-21 01:10:00,47.7,40.5,30.18,SE,145,4.6,5.2,76,0.00,BKN,FEW,0.00,WeatherDisplay:10.37,2013-04-21 00:10:00,
2013-04-21 01:15:00,47.5,40.3,30.18,SE,145,9.2,9.2,76,0.00,BKN,FEW,0.00,WeatherDisplay:10.37,2013-04-21 00:15:00,
2013-04-21 01:20:00,47.5,40.3,30.16,West,280,9.2,9.2,76,0.00,BKN,FEW,0.00,WeatherDisplay:10.37,2013-04-21 00:20:00,
2013-04-21 01:25:00,47.7,40.5,30.16,SE,145,8.1,8.1,76,0.00,BKN,FEW,0.00,WeatherDisplay:10.37,2013-04-21 00:25:00,
2013-04-21 01:30:00,47.7,40.5,30.16,SE,145,2.3,4.0,76,0.00,BKN,FEW,0.00,WeatherDisplay:10.37,2013-04-21 00:30:00,
2013-04-21 01:35:00,47.7,40.5,30.16,SE,145,5.8,5.8,76,0.00,BKN,FEW,0.00,WeatherDisplay:10.37,2013-04-21 00:35:00,
2013-04-21 01:40:00,47.5,40.3,30.15,SE,145,4.6,4.6,76,0.00,BKN,FEW,0.00,WeatherDisplay:10.37,2013-04-21 00:40:00,
2013-04-21 01:45:00,47.7,40.5,30.15,SSW,212,8.1,8.1,76,0.00,BKN,FEW,0.00,WeatherDisplay:10.37,2013-04-21 00:45:00,
2013-04-21 01:50:00,47.7,40.5,30.15,ESE,122,5.8,5.8,76,0.00,BKN,FEW,0.00,WeatherDisplay:10.37,2013-04-21 00:50:00,
2013-04-21 01:55:00,47.7,40.5,30.15,SE,145,6.0,6.0,76,0.00,BKN,FEW,0.00,WeatherDisplay:10.37,2013-04-21 00:55:00,
2013-04-21 02:00:00,47.5,40.6,30.15,ESE,122,10.4,10.4,77,0.00,BKN,FEW,0.00,WeatherDisplay:10.37,2013-04-21 01:00:00,
2013-04-21 02:05:00,47.7,40.8,30.15,ESE,122,2.3,3.5,77,0.00,BKN,FEW,0.00,WeatherDisplay:10.37,2013-04-21 01:05:00,
2013-04-21 02:10:00,47.7,40.8,30.15,West,280,6.9,6.9,77,0.00,BKN,FEW,0.00,WeatherDisplay:10.37,2013-04-21 01:10:00,
2013-04-21 02:15:00,47.7,40.8,30.15,SE,145,11.5,11.5,77,0.00,BKN,FEW,0.00,WeatherDisplay:10.37,2013-04-21 01:15:00,
2013-04-21 02:20:00,47.5,40.6,30.15,SE,145,3.5,4.0,77,0.00,BKN,FEW,0.00,WeatherDisplay:10.37,2013-04-21 01:20:00,
2013-04-21 02:25:00,47.3,40.5,30.15,SE,145,4.6,4.6,77,0.00,BKN,FEW,0.00,WeatherDisplay:10.37,2013-04-21 01:25:00,
2013-04-21 02:30:00,47.5,40.6,30.15,SE,145,2.3,3.9,77,0.00,BKN,FEW,0.00,WeatherDisplay:10.37,2013-04-21 01:30:00,
2013-04-21 02:35:00,47.7,41.1,30.15,SE,145,5.8,5.8,78,0.00,BKN,FEW,0.00,WeatherDisplay:10.37,2013-04-21 01:35:00,
2013-04-21 02:40:00,47.7,41.1,30.13,SE,145,5.8,5.8,78,0.00,BKN,FEW,0.00,WeatherDisplay:10.37,2013-04-21 01:40:00,
2013-04-21 02:45:00,47.7,41.1,30.13,SE,145,6.9,6.9,78,0.00,BKN,FEW,0.00,WeatherDisplay:10.37,2013-04-21 01:45:00,
2013-04-21 02:50:00,47.7,41.1,30.13,SE,145,5.8,5.8,78,0.00,BKN,FEW,0.00,WeatherDisplay:10.37,2013-04-21 01:50:00,
2013-04-21 02:55:00,47.7,41.1,30.13,SE,145,4.6,5.3,78,0.00,BKN,FEW,0.00,WeatherDisplay:10.37,2013-04-21 01:55:00,
2013-04-21 03:00:00,47.7,41.1,30.11,ESE,122,3.7,4.2,78,0.00,BKN,FEW,0.00,WeatherDisplay:10.37,2013-04-21 02:00:00,
2013-04-21 03:05:00,47.7,41.1,30.11,ESE,122,6.3,6.3,78,0.00,BKN,FEW,0.00,WeatherDisplay:10.37,2013-04-21 02:05:00,
2013-04-21 03:10:00,47.7,41.1,30.11,ESE,122,6.3,6.3,78,0.00,BKN,FEW,0.00,WeatherDisplay:10.37,2013-04-21 02:10:00,
2013-04-21 03:15:00,47.8,41.3,30.11,WSW,258,4.6,4.6,78,0.00,BKN,FEW,0.00,WeatherDisplay:10.37,2013-04-21 02:15:00,
2013-04-21 03:20:00,47.8,41.3,30.10,SE,145,3.5,4.2,78,0.00,BKN,FEW,0.00,WeatherDisplay:10.37,2013-04-21 02:20:00,
2013-04-21 03:25:00,48.0,41.2,30.10,SE,145,9.2,9.2,77,0.00,BKN,FEW,0.00,WeatherDisplay:10.37,2013-04-21 02:25:00,
2013-04-21 03:30:00,47.8,41.0,30.10,ENE,78,2.3,4.0,77,0.00,BKN,FEW,0.00,WeatherDisplay:10.37,2013-04-21 02:30:00,
2013-04-21 03:35:00,47.8,41.0,30.10,ESE,122,6.9,6.9,77,0.00,BKN,FEW,0.00,WeatherDisplay:10.37,2013-04-21 02:35:00,
2013-04-21 03:40:00,48.0,41.2,30.09,ESE,122,4.6,4.7,77,0.00,BKN,FEW,0.00,WeatherDisplay:10.37,2013-04-21 02:40:00,
2013-04-21 03:45:00,48.0,41.2,30.09,West,280,9.2,9.2,77,0.00,BKN,FEW,0.00,WeatherDisplay:10.37,2013-04-21 02:45:00,
2013-04-21 03:50:00,48.4,41.5,30.09,ESE,122,4.6,5.4,77,0.00,BKN,FEW,0.00,WeatherDisplay:10.37,2013-04-21 02:50:00,
2013-04-21 03:55:00,48.2,41.3,30.09,SE,145,6.9,6.9,77,0.00,BKN,FEW,0.00,WeatherDisplay:10.37,2013-04-21 02:55:00,
2013-04-21 04:01:00,48.0,41.2,30.09,SE,145,6.9,6.9,77,0.00,BKN,FEW,0.00,WeatherDisplay:10.37,2013-04-21 03:01:00,
2013-04-21 04:06:00,48.2,41.7,30.09,SE,145,9.2,9.2,78,0.00,BKN,FEW,0.00,WeatherDisplay:10.37,2013-04-21 03:06:00,
2013-04-21 04:11:00,48.2,41.7,30.09,SE,145,8.1,8.1,78,0.00,BKN,FEW,0.00,WeatherDisplay:10.37,2013-04-21 03:11:00,
2013-04-21 04:16:00,48.0,41.5,30.09,SE,145,5.8,5.8,78,0.00,BKN,FEW,0.00,WeatherDisplay:10.37,2013-04-21 03:16:00,
2013-04-21 04:21:00,48.2,42.0,30.08,SE,145,4.6,4.6,79,0.00,BKN,FEW,0.00,WeatherDisplay:10.37,2013-04-21 03:21:00,
2013-04-21 04:26:00,48.2,42.0,30.08,ESE,122,9.2,9.2,79,0.00,BKN,FEW,0.00,WeatherDisplay:10.37,2013-04-21 03:26:00,
2013-04-21 04:31:00,48.4,42.2,30.08,West,280,5.8,5.8,79,0.00,BKN,FEW,0.00,WeatherDisplay:10.37,2013-04-21 03:31:00,
2013-04-21 04:36:00,48.4,42.2,30.08,ESE,122,4.6,5.2,79,0.00,BKN,FEW,0.00,WeatherDisplay:10.37,2013-04-21 03:36:00,
2013-04-21 04:41:00,48.4,42.2,30.07,SE,145,6.9,6.9,79,0.00,BKN,FEW,0.00,WeatherDisplay:10.37,2013-04-21 03:41:00,
2013-04-21 04:46:00,48.2,42.0,30.07,ESE,122,12.7,12.7,79,0.00,BKN,FEW,0.00,WeatherDisplay:10.37,2013-04-21 03:46:00,
2013-04-21 04:51:00,48.4,42.2,30.07,East,100,9.2,9.2,79,0.00,BKN,FEW,0.00,WeatherDisplay:10.37,2013-04-21 03:51:00,
2013-04-21 04:56:00,48.4,42.2,30.07,SE,145,9.2,9.2,79,0.00,BKN,FEW,0.00,WeatherDisplay:10.37,2013-04-21 03:56:00,
2013-04-21 05:01:00,48.4,42.5,30.06,ESE,122,10.4,10.4,80,0.00,BKN,FEW,0.00,WeatherDisplay:10.37,2013-04-21 04:01:00,
2013-04-21 05:06:00,48.4,42.5,30.06,ESE,122,10.9,10.9,80,0.00,BKN,FEW,0.00,WeatherDisplay:10.37,2013-04-21 04:06:00,
2013-04-21 05:11:00,48.4,42.5,30.06,SE,145,9.2,9.2,80,0.00,BKN,FEW,0.00,WeatherDisplay:10.37,2013-04-21 04:11:00,
2013-04-21 05:16:00,48.4,42.5,30.06,SE,145,6.9,6.9,80,0.00,BKN,FEW,0.00,WeatherDisplay:10.37,2013-04-21 04:16:00,
2013-04-21 05:21:00,48.4,42.5,30.06,WSW,258,12.7,12.7,80,0.00,BKN,FEW,0.00,WeatherDisplay:10.37,2013-04-21 04:21:00,
2013-04-21 05:26:00,48.2,42.3,30.06,NW,325,9.2,9.2,80,0.00,BKN,FEW,0.00,WeatherDisplay:10.37,2013-04-21 04:26:00,
2013-04-21 05:31:00,48.4,42.8,30.06,ESE,122,10.5,10.5,81,0.00,BKN,FEW,0.00,WeatherDisplay:10.37,2013-04-21 04:31:00,
2013-04-21 05:36:00,48.4,42.8,30.06,WSW,258,6.9,6.9,81,0.00,BKN,FEW,0.00,WeatherDisplay:10.37,2013-04-21 04:36:00,
2013-04-21 05:41:00,48.4,42.8,30.04,SE,145,10.4,10.4,81,0.00,BKN,FEW,0.00,WeatherDisplay:10.37,2013-04-21 04:41:00,
2013-04-21 05:46:00,48.4,42.8,30.04,SE,145,5.8,7.1,81,0.00,BKN,FEW,0.00,WeatherDisplay:10.37,2013-04-21 04:46:00,
2013-04-21 05:51:00,48.4,42.8,30.04,ESE,122,5.8,6.5,81,0.00,BKN,FEW,0.00,WeatherDisplay:10.37,2013-04-21 04:51:00,
2013-04-21 05:56:00,48.2,42.6,30.04,SE,145,5.8,5.8,81,0.00,BKN,FEW,0.00,WeatherDisplay:10.37,2013-04-21 04:56:00,
2013-04-21 06:01:00,48.0,42.5,30.02,SE,145,11.5,11.5,81,0.00,-RA,FEW,0.00,WeatherDisplay:10.37,2013-04-21 05:01:00,
2013-04-21 06:06:00,48.0,42.5,30.02,ESE,122,8.1,8.1,81,0.00,-RA,FEW,0.00,WeatherDisplay:10.37,2013-04-21 05:06:00,
2013-04-21 06:11:00,48.0,42.5,30.02,ESE,122,8.1,8.1,81,0.00,-RA,FEW,0.00,WeatherDisplay:10.37,2013-04-21 05:11:00,
2013-04-21 06:16:00,48.0,42.5,30.02,SE,145,5.8,5.8,81,0.00,-RA,FEW,0.00,WeatherDisplay:10.37,2013-04-21 05:16:00,
2013-04-21 06:21:00,47.8,42.3,30.02,SE,145,9.2,9.2,81,0.00,-RA,FEW,0.00,WeatherDisplay:10.37,2013-04-21 05:21:00,
2013-04-21 06:26:00,48.0,42.5,30.02,ESE,122,6.6,6.6,81,0.00,-RA,FEW,0.00,WeatherDisplay:10.37,2013-04-21 05:26:00,
2013-04-21 06:31:00,47.8,42.3,30.02,ESE,122,12.7,12.7,81,0.00,-RA,FEW,0.00,WeatherDisplay:10.37,2013-04-21 05:31:00,
2013-04-21 06:36:00,47.8,42.3,30.02,SE,145,6.9,6.9,81,0.00,-RA,FEW,0.00,WeatherDisplay:10.37,2013-04-21 05:36:00,
2013-04-21 06:41:00,48.0,42.8,30.04,WSW,258,9.4,9.4,82,0.00,-RA,FEW,0.00,WeatherDisplay:10.37,2013-04-21 05:41:00,
2013-04-21 06:46:00,47.8,42.6,30.04,SE,145,14.9,14.9,82,0.00,-RA,FEW,0.00,WeatherDisplay:10.37,2013-04-21 05:46:00,
2013-04-21 06:51:00,48.0,43.1,30.04,SE,145,9.2,9.2,83,0.00,-RA,FEW,0.00,WeatherDisplay:10.37,2013-04-21 05:51:00,
2013-04-21 06:56:00,47.8,42.9,30.04,ESE,122,12.7,12.7,83,0.00,-RA,FEW,0.00,WeatherDisplay:10.37,2013-04-21 05:56:00,
2013-04-21 07:01:00,47.7,43.1,30.01,SE,145,6.9,6.9,84,0.00,-RA,FEW,0.00,WeatherDisplay:10.37,2013-04-21 06:01:00,
2013-04-21 07:06:00,47.7,43.1,30.01,West,280,5.8,5.8,84,0.00,-RA,FEW,0.00,WeatherDisplay:10.37,2013-04-21 06:06:00,
2013-04-21 07:11:00,47.7,43.1,30.01,ENE,78,5.8,5.8,84,0.00,-RA,FEW,0.00,WeatherDisplay:10.37,2013-04-21 06:11:00,
2013-04-21 07:17:00,47.7,43.1,30.01,SE,145,3.5,4.5,84,0.00,-RA,FEW,0.00,WeatherDisplay:10.37,2013-04-21 06:17:00,
2013-04-21 07:22:00,47.7,43.4,30.03,West,280,5.8,5.8,85,0.00,-RA,FEW,0.00,WeatherDisplay:10.37,2013-04-21 06:22:00,
2013-04-21 07:27:00,47.7,43.4,30.03,ESE,122,8.1,8.1,85,0.00,-RA,FEW,0.00,WeatherDisplay:10.37,2013-04-21 06:27:00,
2013-04-21 07:32:00,47.8,43.5,30.03,ESE,122,4.6,4.7,85,0.00,-RA,FEW,0.00,WeatherDisplay:10.37,2013-04-21 06:32:00,
2013-04-21 07:37:00,47.8,43.5,30.03,ESE,122,7.1,7.1,85,0.00,-RA,FEW,0.00,WeatherDisplay:10.37,2013-04-21 06:37:00,
2013-04-21 07:42:00,47.8,43.5,30.03,SE,145,5.8,5.8,85,0.00,-RA,FEW,0.00,WeatherDisplay:10.37,2013-04-21 06:42:00,
2013-04-21 07:47:00,47.7,43.1,30.03,WNW,302,11.5,11.5,84,0.00,-RA,FEW,0.00,WeatherDisplay:10.37,2013-04-21 06:47:00,
2013-04-21 07:52:00,47.1,42.5,30.03,West,280,5.8,5.9,84,0.00,-RA,FEW,0.00,WeatherDisplay:10.37,2013-04-21 06:52:00,
2013-04-21 07:57:00,46.6,42.3,30.03,WSW,258,6.9,6.9,85,0.00,-RA,FEW,0.00,WeatherDisplay:10.37,2013-04-21 06:57:00,
2013-04-21 08:02:00,46.4,42.1,30.03,West,280,5.8,5.8,85,0.00,-RA,FEW,0.00,WeatherDisplay:10.37,2013-04-21 07:02:00,
2013-04-21 08:07:00,46.6,42.6,30.03,WSW,258,9.4,9.4,86,0.00,-RA,FEW,0.00,WeatherDisplay:10.37,2013-04-21 07:07:00,
2013-04-21 08:12:00,46.4,42.4,30.03,WSW,258,8.1,8.1,86,0.00,-RA,FEW,0.00,WeatherDisplay:10.37,2013-04-21 07:12:00,
2013-04-21 08:17:00,46.6,42.6,30.03,ESE,122,3.5,4.1,86,0.00,-RA,FEW,0.00,WeatherDisplay:10.37,2013-04-21 07:17:00,
2013-04-21 08:22:00,46.6,42.6,30.03,ESE,122,4.6,4.6,86,0.00,-RA,FEW,0.00,WeatherDisplay:10.37,2013-04-21 07:22:00,
2013-04-21 08:27:00,46.9,43.0,30.03,SE,145,4.6,4.6,86,0.00,-RA,FEW,0.00,WeatherDisplay:10.37,2013-04-21 07:27:00,
2013-04-21 08:32:00,46.9,43.0,30.03,West,280,5.8,5.8,86,0.00,-RA,FEW,0.00,WeatherDisplay:10.37,2013-04-21 07:32:00,
2013-04-21 08:37:00,47.1,43.1,30.03,West,280,6.9,6.9,86,0.00,-RA,FEW,0.00,WeatherDisplay:10.37,2013-04-21 07:37:00,
2013-04-21 08:42:00,46.9,43.0,30.02,ESE,122,5.8,5.8,86,0.00,-RA,FEW,0.00,WeatherDisplay:10.37,2013-04-21 07:42:00,
2013-04-21 08:47:00,46.9,43.0,30.02,WSW,258,5.8,5.8,86,0.00,-RA,FEW,0.00,WeatherDisplay:10.37,2013-04-21 07:47:00,
2013-04-21 08:52:00,47.3,43.3,30.02,WSW,258,7.5,7.5,86,0.00,-RA,FEW,0.00,WeatherDisplay:10.37,2013-04-21 07:52:00,
2013-04-21 08:57:00,47.3,43.3,30.02,SE,145,6.9,6.9,86,0.00,-RA,FEW,0.00,WeatherDisplay:10.37,2013-04-21 07:57:00,
2013-04-21 09:02:00,47.8,43.9,30.01,WSW,258,6.9,6.9,86,0.00,-RA,FEW,0.00,WeatherDisplay:10.37,2013-04-21 08:02:00,
2013-04-21 09:07:00,48.0,44.0,30.01,WSW,258,6.9,6.9,86,0.00,-RA,FEW,0.00,WeatherDisplay:10.37,2013-04-21 08:07:00,
2013-04-21 09:12:00,48.4,44.4,30.01,ESE,122,4.6,4.6,86,0.00,-RA,FEW,0.00,WeatherDisplay:10.37,2013-04-21 08:12:00,
2013-04-21 09:17:00,48.4,44.4,30.01,ESE,122,5.8,5.8,86,0.00,-RA,FEW,0.00,WeatherDisplay:10.37,2013-04-21 08:17:00,
2013-04-21 09:22:00,48.0,43.7,30.02,WSW,258,5.8,5.8,85,0.00,-RA,FEW,0.00,WeatherDisplay:10.37,2013-04-21 08:22:00,
2013-04-21 09:27:00,48.0,43.7,30.02,ESE,122,9.2,9.2,85,0.00,-RA,FEW,0.00,WeatherDisplay:10.37,2013-04-21 08:27:00,
2013-04-21 09:32:00,48.6,44.6,30.02,ESE,122,2.3,3.1,86,0.00,-RA,FEW,0.00,WeatherDisplay:10.37,2013-04-21 08:32:00,
2013-04-21 09:37:00,48.9,44.6,30.02,ESE,122,5.8,5.8,85,0.00,-RA,FEW,0.00,WeatherDisplay:10.37,2013-04-21 08:37:00,
2013-04-21 09:42:00,49.3,45.0,30.03,West,280,6.9,6.9,85,0.00,-RA,FEW,0.00,WeatherDisplay:10.37,2013-04-21 08:42:00,
2013-04-21 09:47:00,49.8,45.2,30.03,ESE,122,6.9,6.9,84,0.00,-RA,FEW,0.00,WeatherDisplay:10.37,2013-04-21 08:47:00,
2013-04-21 09:52:00,50.0,45.4,30.03,WSW,258,3.5,4.5,84,0.00,-RA,FEW,0.00,WeatherDisplay:10.37,2013-04-21 08:52:00,
2013-04-21 09:57:00,50.2,45.2,30.03,ESE,122,4.6,4.6,83,0.00,-RA,FEW,0.00,WeatherDisplay:10.37,2013-04-21 08:57:00,
2013-04-21 10:02:00,50.5,45.6,30.01,SE,145,5.8,5.8,83,0.00,-RA,FEW,0.00,WeatherDisplay:10.37,2013-04-21 09:02:00,
2013-04-21 10:07:00,50.5,45.2,30.01,WSW,258,5.8,5.8,82,0.00,-RA,FEW,0.00,WeatherDisplay:10.37,2013-04-21 09:07:00,
2013-04-21 10:12:00,50.4,44.7,30.01,WSW,258,5.8,5.8,81,0.00,-RA,FEW,0.00,WeatherDisplay:10.37,2013-04-21 09:12:00,
2013-04-21 10:17:00,50.5,45.2,30.01,West,280,3.7,3.7,82,0.00,-RA,FEW,0.00,WeatherDisplay:10.37,2013-04-21 09:17:00,
2013-04-21 10:22:00,50.5,44.9,30.02,West,280,5.8,5.8,81,0.00,-RA,FEW,0.00,WeatherDisplay:10.37,2013-04-21 09:22:00,
2013-04-21 10:27:00,50.2,44.2,30.02,West,280,4.6,4.6,80,0.00,-RA,FEW,0.00,WeatherDisplay:10.37,2013-04-21 09:27:00,
2013-04-21 10:32:00,50.0,44.1,30.02,WSW,258,3.5,3.9,80,0.00,-RA,FEW,0.00,WeatherDisplay:10.37,2013-04-21 09:32:00,
2013-04-21 10:37:00,50.0,43.7,30.02,WSW,258,3.5,3.5,79,0.00,-RA,FEW,0.00,WeatherDisplay:10.37,2013-04-21 09:37:00,
2013-04-21 10:42:00,50.5,44.3,30.02,ESE,122,6.9,6.9,79,0.00,-RA,FEW,0.00,WeatherDisplay:10.37,2013-04-21 09:42:00,
2013-04-21 10:47:00,50.7,44.1,30.02,ESE,122,6.9,6.9,78,0.00,-RA,FEW,0.00,WeatherDisplay:10.37,2013-04-21 09:47:00,
2013-04-21 10:55:00,51.6,44.3,30.02,WSW,258,9.2,9.2,76,0.00,-RA,FEW,0.00,WeatherDisplay:10.37,2013-04-21 09:55:00,
2013-04-21 11:00:00,51.6,44.0,30.01,ENE,78,8.1,8.1,75,0.03,-RA,FEW,0.03,WeatherDisplay:10.37,2013-04-21 10:00:00,
2013-04-21 11:05:00,51.4,43.8,30.01,WSW,258,4.6,4.6,75,0.03,RA,FEW,0.03,WeatherDisplay:10.37,2013-04-21 10:05:00,
2013-04-21 11:10:00,51.6,44.0,30.01,SE,145,3.5,3.6,75,0.03,BKN,FEW,0.03,WeatherDisplay:10.37,2013-04-21 10:10:00,
2013-04-21 11:15:00,52.5,45.2,30.01,SE,145,6.9,6.9,76,0.03,BKN,FEW,0.03,WeatherDisplay:10.37,2013-04-21 10:15:00,
2013-04-21 11:20:00,53.4,45.7,30.00,West,280,4.6,4.6,75,0.03,BKN,FEW,0.03,WeatherDisplay:10.37,2013-04-21 10:20:00,
2013-04-21 11:25:00,53.6,45.5,30.00,WSW,258,6.9,6.9,74,0.03,BKN,FEW,0.03,WeatherDisplay:10.37,2013-04-21 10:25:00,
2013-04-21 11:30:00,54.3,45.8,30.00,WSW,258,8.1,8.1,73,0.03,BKN,FEW,0.03,WeatherDisplay:10.37,2013-04-21 10:30:00,
2013-04-21 11:35:00,54.3,45.1,30.00,West,280,5.8,5.8,71,0.03,BKN,FEW,0.03,WeatherDisplay:10.37,2013-04-21 10:35:00,
2013-04-21 11:40:00,54.1,44.6,30.01,ESE,122,9.2,9.2,70,0.03,BKN,FEW,0.03,WeatherDisplay:10.37,2013-04-21 10:40:00,
2013-04-21 11:45:00,55.2,46.0,30.01,SE,145,5.8,6.0,71,0.03,BKN,FEW,0.03,WeatherDisplay:10.37,2013-04-21 10:45:00,
2013-04-21 11:50:00,55.6,45.9,30.01,SW,235,10.3,10.3,70,0.03,BKN,FEW,0.03,WeatherDisplay:10.37,2013-04-21 10:50:00,
2013-04-21 11:55:00,55.9,45.9,30.01,West,280,10.4,10.4,69,0.03,BKN,FEW,0.03,WeatherDisplay:10.37,2013-04-21 10:55:00,
2013-04-21 12:00:00,56.5,46.4,30.02,ESE,122,11.4,11.4,69,0.00,BKN,FEW,0.03,WeatherDisplay:10.37,2013-04-21 11:00:00,
2013-04-21 12:05:00,57.0,46.9,30.02,SE,145,9.5,9.5,69,0.00,BKN,FEW,0.03,WeatherDisplay:10.37,2013-04-21 11:05:00,
2013-04-21 12:11:00,57.0,46.9,30.02,SE,145,9.5,9.5,69,0.00,BKN,FEW,0.03,WeatherDisplay:10.37,2013-04-21 11:11:00,
2013-04-21 12:16:00,55.9,44.7,30.02,WSW,258,9.2,9.2,66,0.00,BKN,FEW,0.03,WeatherDisplay:10.37,2013-04-21 11:16:00,
2013-04-21 12:21:00,55.6,44.8,30.02,ESE,122,5.8,5.8,67,0.00,BKN,FEW,0.03,WeatherDisplay:10.37,2013-04-21 11:21:00,
2013-04-21 12:26:00,55.6,44.8,30.02,West,280,9.2,9.2,67,0.00,BKN,FEW,0.03,WeatherDisplay:10.37,2013-04-21 11:26:00,
2013-04-21 12:31:00,55.0,44.3,30.02,WSW,258,6.9,6.9,67,0.00,BKN,FEW,0.03,WeatherDisplay:10.37,2013-04-21 11:31:00,
2013-04-21 12:36:00,55.0,44.7,30.02,East,100,6.9,6.9,68,0.00,BKN,FEW,0.03,WeatherDisplay:10.37,2013-04-21 11:36:00,
2013-04-21 12:41:00,55.6,44.8,30.01,West,280,5.8,5.8,67,0.00,BKN,FEW,0.03,WeatherDisplay:10.37,2013-04-21 11:41:00,
2013-04-21 12:46:00,55.8,45.4,30.01,WSW,258,5.8,6.3,68,0.00,BKN,FEW,0.03,WeatherDisplay:10.37,2013-04-21 11:46:00,
2013-04-21 12:51:00,56.1,45.3,30.01,WSW,258,6.9,6.9,67,0.00,BKN,FEW,0.03,WeatherDisplay:10.37,2013-04-21 11:51:00,
2013-04-21 12:56:00,56.7,45.8,30.01,ESE,122,9.3,9.3,67,0.00,BKN,FEW,0.03,WeatherDisplay:10.37,2013-04-21 11:56:00,
2013-04-21 13:01:00,56.8,45.6,30.00,WSW,258,9.2,9.2,66,0.00,BKN,FEW,0.03,WeatherDisplay:10.37,2013-04-21 12:01:00,
2013-04-21 13:06:00,56.7,45.0,30.00,ESE,122,5.8,5.8,65,0.00,BKN,FEW,0.03,WeatherDisplay:10.37,2013-04-21 12:06:00,
2013-04-21 13:11:00,57.2,45.9,30.00,WSW,258,9.4,9.4,66,0.00,BKN,FEW,0.03,WeatherDisplay:10.37,2013-04-21 12:11:00,
2013-04-21 13:16:00,57.2,44.7,30.00,SE,145,8.5,8.5,63,0.00,BKN,FEW,0.03,WeatherDisplay:10.37,2013-04-21 12:16:00,
2013-04-21 13:21:00,56.7,44.2,30.00,WSW,258,6.9,6.9,63,0.00,BKN,FEW,0.03,WeatherDisplay:10.37,2013-04-21 12:21:00,
2013-04-21 13:26:00,55.9,43.5,30.00,ESE,122,9.2,9.2,63,0.00,BKN,FEW,0.03,WeatherDisplay:10.37,2013-04-21 12:26:00,
2013-04-21 13:31:00,55.9,43.9,30.00,WSW,258,9.2,9.2,64,0.00,BKN,FEW,0.03,WeatherDisplay:10.37,2013-04-21 12:31:00,
2013-04-21 13:36:00,56.3,44.7,30.00,SE,145,4.6,4.6,65,0.00,BKN,FEW,0.03,WeatherDisplay:10.37,2013-04-21 12:36:00,
2013-04-21 13:41:00,57.2,45.9,29.98,SW,235,5.8,5.8,66,0.00,BKN,FEW,0.03,WeatherDisplay:10.37,2013-04-21 12:41:00,
2013-04-21 13:46:00,58.5,46.3,29.98,West,280,4.6,4.6,64,0.00,BKN,FEW,0.03,WeatherDisplay:10.37,2013-04-21 12:46:00,
2013-04-21 13:51:00,59.0,46.4,29.98,West,280,8.1,8.1,63,0.00,BKN,FEW,0.03,WeatherDisplay:10.37,2013-04-21 12:51:00,
2013-04-21 13:56:00,59.4,45.9,29.98,West,280,9.2,9.2,61,0.00,BKN,FEW,0.03,WeatherDisplay:10.37,2013-04-21 12:56:00,
2013-04-21 14:01:00,59.9,46.4,29.99,WSW,258,8.1,8.1,61,0.00,SCT,FEW,0.03,WeatherDisplay:10.37,2013-04-21 13:01:00,
2013-04-21 14:06:00,60.4,45.6,29.99,WSW,258,6.6,6.6,58,0.00,SCT,FEW,0.03,WeatherDisplay:10.37,2013-04-21 13:06:00,
2013-04-21 14:11:00,60.6,45.3,29.99,WSW,258,6.9,6.9,57,0.00,SCT,FEW,0.03,WeatherDisplay:10.37,2013-04-21 13:11:00,
2013-04-21 14:16:00,59.9,44.6,29.99,ESE,122,22.9,22.9,57,0.00,SCT,FEW,0.03,WeatherDisplay:10.37,2013-04-21 13:16:00,
2013-04-21 14:21:00,58.1,44.7,30.01,WSW,258,21.9,21.9,61,0.00,SCT,FEW,0.03,WeatherDisplay:10.37,2013-04-21 13:21:00,
2013-04-21 14:26:00,55.0,44.3,30.01,WSW,258,12.7,12.7,67,0.00,SCT,FEW,0.03,WeatherDisplay:10.37,2013-04-21 13:26:00,
2013-04-21 14:31:00,53.8,44.2,30.01,ESE,122,9.4,9.4,70,0.00,SCT,FEW,0.03,WeatherDisplay:10.37,2013-04-21 13:31:00,
2013-04-21 14:36:00,53.4,45.3,30.01,WSW,258,8.1,8.1,74,0.00,SCT,FEW,0.03,WeatherDisplay:10.37,2013-04-21 13:36:00,
2013-04-21 14:41:00,54.1,46.7,30.00,SE,145,8.1,8.1,76,0.00,SCT,FEW,0.03,WeatherDisplay:10.37,2013-04-21 13:41:00,
2013-04-21 14:46:00,55.4,48.3,30.00,WSW,258,9.2,9.2,77,0.00,SCT,FEW,0.03,WeatherDisplay:10.37,2013-04-21 13:46:00,
2013-04-21 14:51:00,55.6,48.1,30.00,ESE,122,5.8,5.8,76,0.00,SCT,FEW,0.03,WeatherDisplay:10.37,2013-04-21 13:51:00,
2013-04-21 14:56:00,55.9,48.5,30.00,West,280,5.8,5.8,76,0.00,SCT,FEW,0.03,WeatherDisplay:10.37,2013-04-21 13:56:00,
2013-04-21 15:01:00,56.3,48.5,30.00,West,280,5.0,5.0,75,0.00,SCT,FEW,0.03,WeatherDisplay:10.37,2013-04-21 14:01:00,
2013-04-21 15:06:00,55.8,47.2,30.00,West,280,9.2,9.2,73,0.00,SCT,FEW,0.03,WeatherDisplay:10.37,2013-04-21 14:06:00,
2013-04-21 15:11:00,55.9,47.4,30.00,West,280,9.2,9.2,73,0.00,SCT,FEW,0.03,WeatherDisplay:10.37,2013-04-21 14:11:00,
2013-04-21 15:16:00,57.0,48.8,30.00,SE,145,6.9,6.9,74,0.00,SCT,FEW,0.03,WeatherDisplay:10.37,2013-04-21 14:16:00,
2013-04-21 15:21:00,57.6,49.0,29.99,ESE,122,9.2,9.2,73,0.00,SCT,FEW,0.03,WeatherDisplay:10.37,2013-04-21 14:21:00,
2013-04-21 15:26:00,57.6,48.2,29.99,WSW,258,8.6,8.6,71,0.00,SCT,FEW,0.03,WeatherDisplay:10.37,2013-04-21 14:26:00,
2013-04-21 15:31:00,57.0,47.3,29.99,West,280,8.1,8.1,70,0.00,SCT,FEW,0.03,WeatherDisplay:10.37,2013-04-21 14:31:00,
2013-04-21 15:36:00,56.3,46.6,29.99,WNW,302,9.8,9.8,70,0.00,SCT,FEW,0.03,WeatherDisplay:10.37,2013-04-21 14:36:00,
2013-04-21 16:16:00,55.8,43.3,29.99,ESE,122,12.3,12.3,63,0.00,SCT,FEW,0.03,WeatherDisplay:10.37,2013-04-21 15:16:00,
2013-04-21 16:21:00,55.8,42.5,29.98,WSW,258,17.8,17.8,61,0.00,SCT,FEW,0.03,WeatherDisplay:10.37,2013-04-21 15:21:00,
2013-04-21 16:26:00,56.3,43.0,29.98,WSW,258,6.9,7.1,61,0.00,SCT,FEW,0.03,WeatherDisplay:10.37,2013-04-21 15:26:00,
2013-04-21 16:31:00,56.7,43.8,29.98,WSW,258,5.8,6.9,62,0.00,SCT,FEW,0.03,WeatherDisplay:10.37,2013-04-21 15:31:00,
2013-04-21 16:36:00,56.5,43.2,29.98,WNW,302,11.1,11.1,61,0.00,SCT,FEW,0.03,WeatherDisplay:10.37,2013-04-21 15:36:00,
2013-04-21 16:41:00,56.5,43.2,29.98,WSW,258,11.5,11.5,61,0.00,SCT,FEW,0.03,WeatherDisplay:10.37,2013-04-21 15:41:00,
2013-04-21 16:46:00,56.3,43.4,29.98,WSW,258,12.6,12.6,62,0.00,SCT,FEW,0.03,WeatherDisplay:10.37,2013-04-21 15:46:00,
2013-04-21 16:51:00,55.8,42.9,29.98,WSW,258,11.5,11.5,62,0.00,SCT,FEW,0.03,WeatherDisplay:10.37,2013-04-21 15:51:00,
2013-04-21 16:56:00,56.3,43.4,29.98,WSW,258,17.8,17.8,62,0.00,SCT,FEW,0.03,WeatherDisplay:10.37,2013-04-21 15:56:00,
2013-04-21 17:01:00,56.5,43.6,29.97,West,280,10.4,10.4,62,0.00,FEW,,0.03,WeatherDisplay:10.37,2013-04-21 16:01:00,
2013-04-21 17:06:00,55.9,43.1,29.97,West,280,11.5,11.5,62,0.00,FEW,,0.03,WeatherDisplay:10.37,2013-04-21 16:06:00,
2013-04-21 17:11:00,55.8,42.9,29.97,WNW,302,13.8,13.8,62,0.00,FEW,,0.03,WeatherDisplay:10.37,2013-04-21 16:11:00,
2013-04-21 17:16:00,55.8,42.9,29.97,NW,325,10.4,10.4,62,0.00,FEW,,0.03,WeatherDisplay:10.37,2013-04-21 16:16:00,
2013-04-21 17:21:00,55.9,43.5,29.98,ENE,78,9.2,9.2,63,0.00,FEW,,0.03,WeatherDisplay:10.37,2013-04-21 16:21:00,
2013-04-21 17:26:00,55.8,42.9,29.98,West,280,11.5,11.5,62,0.00,FEW,,0.03,WeatherDisplay:10.37,2013-04-21 16:26:00,
2013-04-21 17:31:00,55.8,42.9,29.98,ESE,122,8.1,8.1,62,0.00,FEW,,0.03,WeatherDisplay:10.37,2013-04-21 16:31:00,
2013-04-21 17:36:00,55.6,42.3,29.98,WSW,258,9.5,9.5,61,0.00,FEW,,0.03,WeatherDisplay:10.37,2013-04-21 16:36:00,
2013-04-21 17:41:00,55.6,42.3,29.98,WSW,258,9.2,9.2,61,0.00,FEW,,0.03,WeatherDisplay:10.37,2013-04-21 16:41:00,
2013-04-21 17:46:00,55.6,42.3,29.98,WSW,258,6.9,6.9,61,0.00,FEW,,0.03,WeatherDisplay:10.37,2013-04-21 16:46:00,
2013-04-21 17:51:00,55.2,41.6,29.98,West,280,8.1,8.1,60,0.00,FEW,,0.03,WeatherDisplay:10.37,2013-04-21 16:51:00,
2013-04-21 17:56:00,54.9,41.2,29.98,WSW,258,15.0,15.0,60,0.00,FEW,,0.03,WeatherDisplay:10.37,2013-04-21 16:56:00,
2013-04-21 18:01:00,54.3,41.1,29.97,WSW,258,8.1,8.1,61,0.00,BKN,FEW,0.03,WeatherDisplay:10.37,2013-04-21 17:01:00,
2013-04-21 18:06:00,54.3,41.6,29.97,WSW,258,3.5,4.5,62,0.00,BKN,FEW,0.03,WeatherDisplay:10.37,2013-04-21 17:06:00,
2013-04-21 18:11:00,54.3,42.4,29.97,WSW,258,10.4,10.4,64,0.00,BKN,FEW,0.03,WeatherDisplay:10.37,2013-04-21 17:11:00,
2013-04-21 18:16:00,54.5,43.4,29.97,WSW,258,5.8,5.8,66,0.00,BKN,FEW,0.03,WeatherDisplay:10.37,2013-04-21 17:16:00,
2013-04-21 18:21:00,54.9,43.7,29.97,WSW,258,5.8,5.8,66,0.00,BKN,FEW,0.03,WeatherDisplay:10.37,2013-04-21 17:21:00,
2013-04-21 18:26:00,54.7,43.5,29.97,South,190,6.9,6.9,66,0.00,BKN,FEW,0.03,WeatherDisplay:10.37,2013-04-21 17:26:00,
2013-04-21 18:31:00,54.3,42.8,29.97,ESE,122,5.9,5.9,65,0.00,BKN,FEW,0.03,WeatherDisplay:10.37,2013-04-21 17:31:00,
2013-04-21 18:36:00,54.3,42.4,29.97,West,280,3.5,4.1,64,0.00,BKN,FEW,0.03,WeatherDisplay:10.37,2013-04-21 17:36:00,
2013-04-21 18:41:00,54.3,42.4,29.96,WSW,258,5.8,5.8,64,0.00,BKN,FEW,0.03,WeatherDisplay:10.37,2013-04-21 17:41:00,
2013-04-21 18:46:00,54.5,43.0,29.96,WSW,258,3.6,3.9,65,0.00,BKN,FEW,0.03,WeatherDisplay:10.37,2013-04-21 17:46:00,
2013-04-21 18:51:00,54.7,42.7,29.96,WSW,258,3.5,3.6,64,0.00,BKN,FEW,0.03,WeatherDisplay:10.37,2013-04-21 17:51:00,
2013-04-21 18:56:00,54.5,42.2,29.96,WNW,302,5.4,5.4,63,0.00,BKN,FEW,0.03,WeatherDisplay:10.37,2013-04-21 17:56:00,
2013-04-21 19:01:00,54.5,42.6,29.97,West,280,8.1,8.1,64,0.00,BKN,FEW,0.03,WeatherDisplay:10.37,2013-04-21 18:01:00,
2013-04-21 19:06:00,54.3,42.4,29.97,WSW,258,5.8,5.8,64,0.00,BKN,FEW,0.03,WeatherDisplay:10.37,2013-04-21 18:06:00,
2013-04-21 19:11:00,54.1,41.8,29.97,WSW,258,10.4,10.4,63,0.00,BKN,FEW,0.03,WeatherDisplay:10.37,2013-04-21 18:11:00,
2013-04-21 19:16:00,54.1,41.8,29.97,WSW,258,6.9,6.9,63,0.00,BKN,FEW,0.03,WeatherDisplay:10.37,2013-04-21 18:16:00,
2013-04-21 19:21:00,54.1,41.4,29.99,SW,235,8.1,8.1,62,0.00,BKN,FEW,0.03,WeatherDisplay:10.37,2013-04-21 18:21:00,
2013-04-21 19:26:00,54.0,41.6,29.99,East,100,5.8,5.8,63,0.00,BKN,FEW,0.03,WeatherDisplay:10.37,2013-04-21 18:26:00,
2013-04-21 19:31:00,54.0,41.2,29.99,ENE,78,10.4,10.4,62,0.00,BKN,FEW,0.03,WeatherDisplay:10.37,2013-04-21 18:31:00,
2013-04-21 19:36:00,54.1,41.4,29.99,West,280,8.1,8.1,62,0.00,BKN,FEW,0.03,WeatherDisplay:10.37,2013-04-21 18:36:00,
2013-04-21 19:41:00,54.1,41.8,29.98,WSW,258,3.5,5.1,63,0.00,BKN,FEW,0.03,WeatherDisplay:10.37,2013-04-21 18:41:00,
2013-04-21 19:46:00,54.0,41.6,29.98,WSW,258,6.9,6.9,63,0.00,BKN,FEW,0.03,WeatherDisplay:10.37,2013-04-21 18:46:00,
2013-04-21 19:51:00,53.4,40.7,29.98,WSW,258,5.8,5.8,62,0.00,BKN,FEW,0.03,WeatherDisplay:10.37,2013-04-21 18:51:00,
2013-04-21 19:56:00,52.9,40.6,29.98,WSW,258,4.6,4.6,63,0.00,BKN,FEW,0.03,WeatherDisplay:10.37,2013-04-21 18:56:00,
2013-04-21 20:01:00,52.7,40.5,29.99,WSW,258,8.1,8.1,63,0.00,BKN,FEW,0.03,WeatherDisplay:10.37,2013-04-21 19:01:00,
2013-04-21 20:07:00,52.2,40.3,29.99,WSW,258,6.0,6.0,64,0.00,BKN,FEW,0.03,WeatherDisplay:10.37,2013-04-21 19:07:00,
2013-04-21 20:12:00,52.0,40.2,29.99,WSW,258,7.1,7.1,64,0.00,BKN,FEW,0.03,WeatherDisplay:10.37,2013-04-21 19:12:00,
2013-04-21 20:17:00,51.4,40.1,29.99,SSE,168,8.1,8.1,65,0.00,BKN,FEW,0.03,WeatherDisplay:10.37,2013-04-21 19:17:00,
2013-04-21 20:22:00,51.3,40.3,29.98,ESE,122,4.6,6.2,66,0.00,BKN,FEW,0.03,WeatherDisplay:10.37,2013-04-21 19:22:00,
2013-04-21 20:27:00,50.7,40.2,29.98,SSE,168,5.8,5.8,67,0.00,BKN,FEW,0.03,WeatherDisplay:10.37,2013-04-21 19:27:00,
2013-04-21 20:32:00,50.7,40.2,29.98,WSW,258,8.5,8.5,67,0.00,BKN,FEW,0.03,WeatherDisplay:10.37,2013-04-21 19:32:00,
2013-04-21 20:37:00,50.5,40.4,29.98,WSW,258,8.1,8.1,68,0.00,BKN,FEW,0.03,WeatherDisplay:10.37,2013-04-21 19:37:00,
2013-04-21 20:42:00,50.5,40.4,29.99,WSW,258,6.9,6.9,68,0.00,BKN,FEW,0.03,WeatherDisplay:10.37,2013-04-21 19:42:00,
2013-04-21 20:47:00,50.2,40.4,29.99,WSW,258,8.1,8.1,69,0.00,BKN,FEW,0.03,WeatherDisplay:10.37,2013-04-21 19:47:00,
2013-04-21 20:52:00,50.2,40.4,29.99,WSW,258,6.9,6.9,69,0.00,BKN,FEW,0.03,WeatherDisplay:10.37,2013-04-21 19:52:00,
2013-04-21 20:57:00,50.2,40.4,29.99,SE,145,11.5,11.5,69,0.00,BKN,FEW,0.03,WeatherDisplay:10.37,2013-04-21 19:57:00,
2013-04-21 21:02:00,50.4,40.9,29.99,WNW,302,11.5,11.5,70,0.00,SCT,FEW,0.03,WeatherDisplay:10.37,2013-04-21 20:02:00,
2013-04-21 21:07:00,50.0,40.6,29.99,West,280,5.8,5.8,70,0.00,SCT,FEW,0.03,WeatherDisplay:10.37,2013-04-21 20:07:00,
2013-04-21 21:12:00,50.0,40.6,29.99,WSW,258,5.8,5.8,70,0.00,SCT,FEW,0.03,WeatherDisplay:10.37,2013-04-21 20:12:00,
2013-04-21 21:17:00,49.8,40.4,29.99,ESE,122,8.1,8.1,70,0.00,SCT,FEW,0.03,WeatherDisplay:10.37,2013-04-21 20:17:00,
2013-04-21 21:22:00,49.6,40.3,29.99,WSW,258,2.3,3.6,70,0.00,SCT,FEW,0.03,WeatherDisplay:10.37,2013-04-21 20:22:00,
2013-04-21 21:27:00,49.8,40.8,29.99,WSW,258,4.6,4.6,71,0.00,SCT,FEW,0.03,WeatherDisplay:10.37,2013-04-21 20:27:00,
2013-04-21 21:32:00,49.5,40.4,29.99,WSW,258,4.8,4.8,71,0.00,SCT,FEW,0.03,WeatherDisplay:10.37,2013-04-21 20:32:00,
2013-04-21 21:37:00,49.3,40.6,29.99,WSW,258,5.9,5.9,72,0.00,SCT,FEW,0.03,WeatherDisplay:10.37,2013-04-21 20:37:00,
2013-04-21 21:42:00,48.9,40.6,29.99,West,280,9.2,9.2,73,0.00,SCT,FEW,0.03,WeatherDisplay:10.37,2013-04-21 20:42:00,
2013-04-21 21:47:00,48.9,40.6,29.99,West,280,3.5,3.6,73,0.00,SCT,FEW,0.03,WeatherDisplay:10.37,2013-04-21 20:47:00,
2013-04-21 21:52:00,48.6,40.3,29.99,WSW,258,2.3,3.4,73,0.00,SCT,FEW,0.03,WeatherDisplay:10.37,2013-04-21 20:52:00,
2013-04-21 21:57:00,48.4,40.1,29.99,WSW,258,2.3,3.0,73,0.00,SCT,FEW,0.03,WeatherDisplay:10.37,2013-04-21 20:57:00,
2013-04-21 22:02:00,48.2,39.9,29.99,WSW,258,2.3,2.9,73,0.00,BKN,FEW,0.03,WeatherDisplay:10.37,2013-04-21 21:02:00,
2013-04-21 22:07:00,48.4,40.5,29.99,West,280,3.5,3.5,74,0.00,BKN,FEW,0.03,WeatherDisplay:10.37,2013-04-21 21:07:00,
2013-04-21 22:12:00,48.2,40.3,29.99,WSW,258,5.8,5.8,74,0.00,BKN,FEW,0.03,WeatherDisplay:10.37,2013-04-21 21:12:00,
2013-04-21 22:17:00,47.8,40.0,29.99,WSW,258,2.3,2.4,74,0.00,BKN,FEW,0.03,WeatherDisplay:10.37,2013-04-21 21:17:00,
2013-04-21 22:22:00,47.7,39.8,29.98,ESE,122,3.5,3.5,74,0.00,BKN,FEW,0.03,WeatherDisplay:10.37,2013-04-21 21:22:00,
2013-04-21 22:27:00,47.7,40.1,29.98,West,280,3.5,3.5,75,0.00,BKN,FEW,0.03,WeatherDisplay:10.37,2013-04-21 21:27:00,
2013-04-21 22:32:00,47.3,39.8,29.98,ESE,122,3.5,3.5,75,0.00,BKN,FEW,0.03,WeatherDisplay:10.37,2013-04-21 21:32:00,
2013-04-21 22:37:00,47.1,39.9,29.98,WNW,302,3.6,3.6,76,0.00,BKN,FEW,0.03,WeatherDisplay:10.37,2013-04-21 21:37:00,
2013-04-21 22:42:00,47.1,40.3,29.97,ESE,122,3.5,3.5,77,0.00,BKN,FEW,0.03,WeatherDisplay:10.37,2013-04-21 21:42:00,
2013-04-21 22:47:00,46.9,40.1,29.97,SE,145,4.6,4.6,77,0.00,BKN,FEW,0.03,WeatherDisplay:10.37,2013-04-21 21:47:00,
2013-04-21 22:52:00,46.9,40.1,29.97,WSW,258,10.0,10.0,77,0.00,BKN,FEW,0.03,WeatherDisplay:10.37,2013-04-21 21:52:00,
2013-04-21 22:57:00,46.9,40.1,29.97,ESE,122,4.6,4.7,77,0.00,BKN,FEW,0.03,WeatherDisplay:10.37,2013-04-21 21:57:00,
2013-04-21 23:02:00,46.6,40.1,29.99,West,280,4.6,4.6,78,0.00,BKN,FEW,0.03,WeatherDisplay:10.37,2013-04-21 22:02:00,
2013-04-21 23:07:00,46.6,40.1,29.99,SE,145,4.6,4.6,78,0.00,BKN,FEW,0.03,WeatherDisplay:10.37,2013-04-21 22:07:00,
2013-04-21 23:12:00,46.6,40.1,29.99,SSW,212,6.4,6.4,78,0.00,BKN,FEW,0.03,WeatherDisplay:10.37,2013-04-21 22:12:00,
2013-04-21 23:17:00,46.4,39.9,29.99,WSW,258,4.6,4.6,78,0.00,BKN,FEW,0.03,WeatherDisplay:10.37,2013-04-21 22:17:00,
2013-04-21 23:22:00,46.2,40.1,29.99,WSW,258,5.8,5.8,79,0.00,BKN,FEW,0.03,WeatherDisplay:10.37,2013-04-21 22:22:00,
2013-04-21 23:27:00,46.2,40.1,29.99,WSW,258,4.6,4.6,79,0.00,BKN,FEW,0.03,WeatherDisplay:10.37,2013-04-21 22:27:00,
2013-04-21 23:32:00,46.2,40.4,29.99,WSW,258,8.1,8.1,80,0.00,BKN,FEW,0.03,WeatherDisplay:10.37,2013-04-21 22:32:00,
2013-04-21 23:37:00,46.2,40.4,29.99,WSW,258,5.8,5.8,80,0.00,BKN,FEW,0.03,WeatherDisplay:10.37,2013-04-21 22:37:00,
2013-04-21 23:42:00,45.9,40.0,29.97,WSW,258,6.3,6.3,80,0.00,BKN,FEW,0.03,WeatherDisplay:10.37,2013-04-21 22:42:00,
2013-04-21 23:47:00,45.7,39.9,29.97,NW,325,4.6,4.6,80,0.00,BKN,FEW,0.03,WeatherDisplay:10.37,2013-04-21 22:47:00,
2013-04-21 23:52:00,45.7,39.9,29.97,WSW,258,7.8,7.8,80,0.00,BKN,FEW,0.03,WeatherDisplay:10.37,2013-04-21 22:52:00,
2013-04-21 23:57:00,45.7,39.9,29.97,SE,145,10.4,10.4,80,0.00,BKN,FEW,0.03,WeatherDisplay:10.37,2013-04-21 22:57:00,